User: anonymous
Location: Caltech
(34.1382°N, 118.1253°W)
Time: 22:00:07
(UTC-07:00)
Language:

OAO 2 Rocket - Orbit

View from above orbital plane
View from above orbital plane
View from above satellite
View from above satellite

Ground track
Ground track

The orbit data is extracted from the following two-line orbital elements,

1 03598U 68110B   14210.37628830  .00000406  00000-0  98837-4 0  6712
2 03598 034.9934 165.9330 0049640 321.6960 185.0716 14.53643210413001
Epoch (UTC): 29 July 2014 09:01:51
Eccentricity: 0.0049640
inclination: 34.9934°
perigee height: 678 km
apogee height: 749 km
right ascension of ascending node: 165.9330°
argument of perigee: 321.6960°
revolutions per day: 14.53643210
mean anomaly at epoch: 185.0716°
orbit number at epoch: 41300

The dashed part of the orbit path shows where the satellite is in the earth's shadow,  

DLR